• In Russia
  • List of Countries
  • For 7 days
  • Water Temperature
  • Satellite Maps
  • Weather Map
  • Weather Widgets
  • user-avatar
    Login

    Hourly Weather Klagenfurt

    Today, 27 February, Monday

    Time Temperature Precipitation Wind Pressure Humidity
    00:00 +1°C° 0 mm 1 mps 688 mmHg 84%
    01:00 +2°C° 0 mm 1 mps 688 mmHg 79%
    02:00 +1°C° 0 mm 1 mps 688 mmHg 79%
    03:00 +1°C° 0 mm 1 mps 687 mmHg 79%
    04:00 +1°C° 0 mm 1 mps 687 mmHg 79%
    05:00 +1°C° 0 mm 1 mps 687 mmHg 78%
    06:00 0°C° 0 mm 1 mps 687 mmHg 78%
    07:00 0°C° 0 mm 1 mps 687 mmHg 75%
    08:00 +2°C° 0 mm 1 mps 687 mmHg 75%
    09:00 +4°C° 0 mm 1 mps 687 mmHg 74%
    10:00 +6°C° 0 mm 1 mps 687 mmHg 73%
    11:00 +5°C° 0 mm 2 mps 687 mmHg 73%
    12:00 +6°C° 0 mm 2 mps 687 mmHg 73%
    13:00 +7°C° 0 mm 2 mps 686 mmHg 73%
    14:00 +6°C° 0 mm 2 mps 686 mmHg 75%
    15:00 +6°C° 0 mm 2 mps 686 mmHg 78%
    16:00 +5°C° 0 mm 2 mps 685 mmHg 80%
    17:00 +4°C° 0 mm 2 mps 685 mmHg 84%
    18:00 +2°C° 0 mm 2 mps 684 mmHg 89%
    19:00 -1°C° 0 mm 2 mps 684 mmHg 93%
    20:00 -1°C° 0 mm 2 mps 684 mmHg 93%
    21:00 -1°C° 0 mm 2 mps 683 mmHg 93%
    22:00 -2°C° 0 mm 2 mps 683 mmHg 93%
    23:00 -2°C° 0 mm 2 mps 683 mmHg 93%

    Tomorrow, 28 February, Tuesday

    Time Temperature Precipitation Wind Pressure Humidity
    00:00 -2°C° 0 mm 2 mps 683 mmHg 93%
    01:00 -2°C° 0 mm 2 mps 683 mmHg 93%
    02:00 -1°C° 0 mm 2 mps 682 mmHg 94%
    03:00 -1°C° 0 mm 2 mps 682 mmHg 95%
    04:00 +1°C° 0 mm 2 mps 681 mmHg 96%
    05:00 +1°C° 0.1 mm 2 mps 681 mmHg 95%
    06:00 +1°C° 0.1 mm 3 mps 681 mmHg 95%
    07:00 +1°C° 0.1 mm 3 mps 680 mmHg 95%
    08:00 +2°C° 0.1 mm 3 mps 681 mmHg 93%
    09:00 +3°C° 0.1 mm 4 mps 681 mmHg 90%
    10:00 +4°C° 0.1 mm 4 mps 681 mmHg 88%
    11:00 +4°C° 0.1 mm 4 mps 681 mmHg 88%
    12:00 +4°C° 0.1 mm 4 mps 680 mmHg 87%
    13:00 +4°C° 0.1 mm 4 mps 680 mmHg 87%
    14:00 +4°C° 0.5 mm 3 mps 680 mmHg 88%
    15:00 +4°C° 0.5 mm 3 mps 679 mmHg 90%
    16:00 +4°C° 0.5 mm 3 mps 679 mmHg 91%
    17:00 +4°C° 1.6 mm 3 mps 678 mmHg 92%
    18:00 +4°C° 1.6 mm 3 mps 678 mmHg 93%
    19:00 +3°C° 1.6 mm 4 mps 677 mmHg 95%
    20:00 +4°C° 2.1 mm 4 mps 677 mmHg 95%
    21:00 +4°C° 2.1 mm 3 mps 677 mmHg 96%
    22:00 +4°C° 2.1 mm 3 mps 677 mmHg 96%
    23:00 +3°C° 1.3 mm 3 mps 677 mmHg 96%

    Day after tomorrow, 1 March, Wednesday

    Time Temperature Precipitation Wind Pressure Humidity
    00:00 +3°C° 1.3 mm 3 mps 677 mmHg 97%
    01:00 +4°C° 1.3 mm 2 mps 677 mmHg 97%
    02:00 +3°C° 1.5 mm 2 mps 677 mmHg 96%
    03:00 +3°C° 1.5 mm 2 mps 678 mmHg 96%
    04:00 +2°C° 1.5 mm 2 mps 678 mmHg 95%
    05:00 +1°C° 1.6 mm 2 mps 678 mmHg 95%
    06:00 +1°C° 1.6 mm 2 mps 678 mmHg 95%
    07:00 +1°C° 1.6 mm 1 mps 679 mmHg 94%
    08:00 +1°C° 0.3 mm 1 mps 679 mmHg 93%
    09:00 +2°C° 0.3 mm 1 mps 680 mmHg 92%
    10:00 +2°C° 0.3 mm 1 mps 681 mmHg 91%
    11:00 +3°C° 0 mm 1 mps 681 mmHg 88%
    12:00 +4°C° 0 mm 1 mps 682 mmHg 85%
    13:00 +5°C° 0 mm 1 mps 682 mmHg 83%
    14:00 +5°C° 0 mm 1 mps 683 mmHg 83%
    15:00 +5°C° 0 mm 1 mps 683 mmHg 83%
    16:00 +5°C° 0 mm 1 mps 684 mmHg 84%
    17:00 +3°C° 0 mm 1 mps 684 mmHg 87%
    18:00 +1°C° 0 mm 1 mps 684 mmHg 90%
    19:00 -2°C° 0 mm 1 mps 685 mmHg 94%
    20:00 -1°C° 0 mm 1 mps 686 mmHg 94%
    21:00 -1°C° 0 mm 1 mps 686 mmHg 93%
    22:00 -1°C° 0 mm 1 mps 687 mmHg 93%
    23:00 -1°C° 0 mm 1 mps 687 mmHg 93%

    2 March, Thursday

    Time Temperature Precipitation Wind Pressure Humidity
    00:00 -1°C° 0 mm 1 mps 688 mmHg 93%
    01:00 -2°C° 0 mm 1 mps 688 mmHg 93%
    02:00 -1°C° 0 mm 1 mps 687 mmHg 94%
    03:00 -1°C° 0 mm 1 mps 687 mmHg 94%
    04:00 -1°C° 0 mm 1 mps 687 mmHg 94%
    05:00 -1°C° 0 mm 1 mps 687 mmHg 94%
    06:00 -1°C° 0 mm 1 mps 687 mmHg 94%
    07:00 -1°C° 0 mm 1 mps 687 mmHg 94%
    08:00 +1°C° 0 mm 1 mps 688 mmHg 91%
    09:00 +3°C° 0 mm 1 mps 688 mmHg 88%
    10:00 +4°C° 0 mm 2 mps 689 mmHg 84%
    11:00 +5°C° 0 mm 2 mps 689 mmHg 83%
    12:00 +5°C° 0 mm 2 mps 689 mmHg 82%
    13:00 +6°C° 0 mm 2 mps 689 mmHg 81%
    14:00 +6°C° 0 mm 2 mps 689 mmHg 83%
    15:00 +7°C° 0 mm 1 mps 689 mmHg 85%
    16:00 +7°C° 0 mm 1 mps 689 mmHg 87%
    17:00 +5°C° 0 mm 1 mps 689 mmHg 90%
    18:00 +4°C° 0 mm 1 mps 689 mmHg 93%
    19:00 +2°C° 0 mm 1 mps 689 mmHg 96%
    20:00 +2°C° 0 mm 1 mps 689 mmHg 96%
    21:00 +1°C° 0 mm 1 mps 690 mmHg 96%
    22:00 +1°C° 0 mm 1 mps 690 mmHg 96%
    23:00 0°C° 0 mm 1 mps 690 mmHg 96%

    3 March, Friday

    Time Temperature Precipitation Wind Pressure Humidity
    00:00 0°C° 0 mm 1 mps 689 mmHg 96%
    01:00 -1°C° 0 mm 1 mps 689 mmHg 96%
    02:00 -2°C° 0 mm 0 mps 689 mmHg 96%
    03:00 -2°C° 0 mm 0 mps 689 mmHg 96%
    04:00 -2°C° 0 mm 0 mps 689 mmHg 96%
    05:00 -2°C° 0 mm 0 mps 689 mmHg 96%
    06:00 0°C° 0 mm 1 mps 689 mmHg 96%
    07:00 0°C° 0 mm 1 mps 689 mmHg 96%
    08:00 +2°C° 0 mm 1 mps 689 mmHg 92%
    09:00 +4°C° 0 mm 1 mps 689 mmHg 88%
    10:00 +6°C° 0 mm 1 mps 690 mmHg 85%
    11:00 +7°C° 0 mm 1 mps 689 mmHg 85%
    12:00 +7°C° 0 mm 1 mps 689 mmHg 85%
    13:00 +6°C° 0 mm 2 mps 688 mmHg 86%
    14:00 +6°C° 0.1 mm 2 mps 688 mmHg 88%
    15:00 +6°C° 0.1 mm 2 mps 687 mmHg 89%
    16:00 +6°C° 0.1 mm 2 mps 687 mmHg 91%
    17:00 +5°C° 0.1 mm 2 mps 687 mmHg 93%
    18:00 +4°C° 0.1 mm 2 mps 686 mmHg 95%
    19:00 +3°C° 0.1 mm 2 mps 686 mmHg 97%
    20:00 +3°C° 0.1 mm 2 mps 686 mmHg 97%
    21:00 +3°C° 0.1 mm 2 mps 686 mmHg 96%
    22:00 +3°C° 0.1 mm 2 mps 685 mmHg 96%
    23:00 +2°C° 0.1 mm 2 mps 685 mmHg 95%

    4 March, Saturday

    Time Temperature Precipitation Wind Pressure Humidity
    00:00 +2°C° 0.1 mm 2 mps 685 mmHg 95%
    01:00 +2°C° 0.1 mm 2 mps 685 mmHg 95%
    02:00 +2°C° 0.2 mm 2 mps 685 mmHg 95%
    03:00 +3°C° 0.2 mm 2 mps 685 mmHg 96%
    04:00 +3°C° 0.2 mm 2 mps 685 mmHg 96%
    05:00 +3°C° 0.1 mm 2 mps 685 mmHg 97%
    06:00 +3°C° 0.1 mm 2 mps 685 mmHg 97%
    07:00 +3°C° 0.1 mm 2 mps 686 mmHg 97%
    08:00 +4°C° 0.1 mm 2 mps 686 mmHg 95%
    09:00 +5°C° 0.1 mm 2 mps 686 mmHg 94%
    10:00 +5°C° 0.1 mm 2 mps 687 mmHg 92%
    11:00 +6°C° 0.3 mm 2 mps 686 mmHg 91%
    12:00 +6°C° 0.3 mm 2 mps 686 mmHg 91%
    13:00 +6°C° 0.3 mm 2 mps 686 mmHg 90%
    14:00 +6°C° 0.5 mm 2 mps 686 mmHg 91%
    15:00 +6°C° 0.5 mm 2 mps 686 mmHg 91%
    16:00 +6°C° 0.5 mm 2 mps 686 mmHg 92%
    17:00 +5°C° 0.3 mm 2 mps 686 mmHg 94%
    18:00 +6°C° 0.3 mm 1 mps 686 mmHg 95%
    19:00 +5°C° 0.3 mm 1 mps 686 mmHg 97%
    20:00 +5°C° 0.2 mm 1 mps 686 mmHg 97%
    21:00 +5°C° 0.2 mm 1 mps 686 mmHg 97%
    22:00 +5°C° 0.2 mm 1 mps 686 mmHg 97%
    23:00 +5°C° 0.1 mm 1 mps 686 mmHg 97%
    Show more